FFT1682 KMYR-KISP

Flight info

Callsign FFT1682
Flight time 1h 38m
Altitude 35000
Route ELLDE SAWED Q97 KALDA SARDI1
Aircraft A321/M-SDE3FGHIRWY/LB1

Departure

Time 2026-05-04 01:19
Airport Myrtle Beach International Airport (KMYR)

Arrival

Time 2026-05-04 02:57
Airport Long Island MacArthur Airport (KISP)
Time Latitude Longitude Altitude Speed Heading
2026-05-04 01:04 33.68333 -78.92437 31 ft 0 kts 123°
2026-05-04 01:10 33.68343 -78.92455 30 ft 3 kts 123°
2026-05-04 01:10 33.68353 -78.92474 30 ft 3 kts 123°
2026-05-04 01:11 33.68364 -78.92493 31 ft 3 kts 123°
2026-05-04 01:11 33.68374 -78.92513 29 ft 3 kts 105°
2026-05-04 01:11 33.68376 -78.92536 30 ft 3 kts 75°
2026-05-04 01:11 33.68368 -78.92557 30 ft 3 kts 44°
2026-05-04 01:12 33.68352 -78.92571 30 ft 3 kts 15°
2026-05-04 01:12 33.68334 -78.92573 31 ft 1 kts 350°
2026-05-04 01:14 33.68335 -78.92573 31 ft 2 kts 350°
2026-05-04 01:14 33.68387 -78.92585 30 ft 9 kts 348°
2026-05-04 01:14 33.68446 -78.92599 32 ft 9 kts 348°
2026-05-04 01:14 33.68536 -78.92622 32 ft 15 kts 348°
2026-05-04 01:15 33.68621 -78.92643 32 ft 8 kts 347°
2026-05-04 01:15 33.68654 -78.92682 32 ft 7 kts 287°
2026-05-04 01:15 33.68651 -78.92757 32 ft 9 kts 269°
2026-05-04 01:15 33.68699 -78.92806 32 ft 14 kts 345°
2026-05-04 01:16 33.68810 -78.92834 32 ft 16 kts 348°
2026-05-04 01:16 33.68915 -78.92858 32 ft 14 kts 353°
2026-05-04 01:16 33.69009 -78.92848 32 ft 13 kts
2026-05-04 01:16 33.69093 -78.92864 32 ft 13 kts 348°
2026-05-04 01:17 33.69182 -78.92885 32 ft 12 kts 348°
2026-05-04 01:17 33.69249 -78.92906 32 ft 6 kts 333°
2026-05-04 01:17 33.69266 -78.92943 32 ft 7 kts 277°
2026-05-04 01:17 33.69254 -78.93038 32 ft 12 kts 258°
2026-05-04 01:18 33.69228 -78.93123 32 ft 10 kts 220°
2026-05-04 01:18 33.69166 -78.93129 34 ft 11 kts 170°
2026-05-04 01:18 33.68950 -78.93076 35 ft 69 kts 168°
2026-05-04 01:18 33.68215 -78.92893 31 ft 143 kts 168°
2026-05-04 01:19 33.67092 -78.92607 383 ft 169 kts 169°
2026-05-04 01:19 33.65975 -78.92323 1443 ft 161 kts 170°
2026-05-04 01:19 33.64852 -78.92034 2045 ft 171 kts 171°
2026-05-04 01:19 33.63621 -78.91713 2187 ft 190 kts 170°
2026-05-04 01:20 33.62295 -78.91356 2322 ft 206 kts 167°
2026-05-04 01:20 33.61019 -78.90447 2437 ft 228 kts 134°
2026-05-04 01:20 33.60355 -78.88629 2602 ft 255 kts 94°
2026-05-04 01:20 33.60781 -78.86533 3003 ft 267 kts 55°
2026-05-04 01:21 33.62173 -78.85101 3677 ft 266 kts 21°
2026-05-04 01:21 33.63947 -78.84479 4420 ft 267 kts
2026-05-04 01:21 33.65794 -78.84203 5195 ft 268 kts
2026-05-04 01:21 33.67651 -78.84016 5993 ft 268 kts
2026-05-04 01:22 33.69505 -78.83811 6797 ft 268 kts
2026-05-04 01:22 33.71360 -78.83556 7495 ft 270 kts
2026-05-04 01:22 33.73239 -78.83249 8168 ft 273 kts
2026-05-04 01:22 33.75108 -78.82912 8829 ft 277 kts
2026-05-04 01:23 33.77020 -78.82546 9494 ft 279 kts
2026-05-04 01:23 33.78948 -78.82162 10142 ft 283 kts
2026-05-04 01:23 33.80939 -78.81764 10424 ft 300 kts
2026-05-04 01:23 33.83066 -78.81342 10550 ft 321 kts
2026-05-04 01:24 33.85332 -78.80891 10766 ft 337 kts
2026-05-04 01:24 33.87664 -78.80421 11258 ft 343 kts
2026-05-04 01:24 33.90030 -78.79939 11827 ft 347 kts
2026-05-04 01:24 33.92428 -78.79448 12400 ft 351 kts
2026-05-04 01:25 33.94856 -78.78955 12963 ft 355 kts
2026-05-04 01:25 33.97312 -78.78461 13527 ft 360 kts
2026-05-04 01:25 33.99796 -78.77965 14069 ft 364 kts
2026-05-04 01:25 34.02309 -78.77463 14579 ft 367 kts
2026-05-04 01:26 34.04850 -78.76952 15106 ft 371 kts
2026-05-04 01:26 34.07378 -78.76442 15601 ft 375 kts
2026-05-04 01:26 34.09964 -78.75920 16110 ft 378 kts
2026-05-04 01:26 34.12573 -78.75391 16616 ft 382 kts
2026-05-04 01:27 34.15202 -78.74859 17127 ft 385 kts
2026-05-04 01:27 34.17859 -78.74321 17621 ft 389 kts
2026-05-04 01:27 34.20554 -78.73775 18112 ft 392 kts
2026-05-04 01:27 34.23252 -78.73227 18567 ft 395 kts
2026-05-04 01:28 34.25981 -78.72674 18987 ft 398 kts
2026-05-04 01:28 34.28692 -78.72127 19402 ft 401 kts
2026-05-04 01:28 34.31453 -78.71566 19821 ft 403 kts
2026-05-04 01:28 34.34231 -78.70999 20227 ft 406 kts
2026-05-04 01:29 34.37027 -78.70427 20637 ft 409 kts
2026-05-04 01:29 34.39797 -78.69505 21012 ft 419 kts 16°
2026-05-04 01:29 34.42451 -78.67947 21407 ft 428 kts 27°
2026-05-04 01:29 34.44922 -78.65878 21776 ft 433 kts 31°
2026-05-04 01:30 34.47375 -78.63742 22168 ft 436 kts 31°
2026-05-04 01:30 34.49852 -78.61588 22556 ft 439 kts 31°
2026-05-04 01:30 34.52342 -78.59425 22940 ft 442 kts 31°
2026-05-04 01:30 34.54852 -78.57248 23318 ft 445 kts 31°
2026-05-04 01:31 34.57385 -78.55049 23678 ft 448 kts 31°
2026-05-04 01:31 34.59932 -78.52840 23981 ft 451 kts 31°
2026-05-04 01:31 34.62463 -78.50642 24284 ft 454 kts 31°
2026-05-04 01:31 34.65045 -78.48401 24578 ft 457 kts 31°
2026-05-04 01:32 34.67631 -78.46151 24874 ft 459 kts 31°
2026-05-04 01:32 34.70234 -78.43882 25171 ft 462 kts 31°
2026-05-04 01:32 34.72856 -78.41597 25468 ft 464 kts 31°
2026-05-04 01:32 34.75486 -78.39303 25756 ft 467 kts 31°
2026-05-04 01:33 34.78128 -78.36994 26054 ft 469 kts 31°
2026-05-04 01:33 34.80789 -78.34666 26344 ft 471 kts 31°
2026-05-04 01:33 34.83462 -78.32327 26647 ft 474 kts 31°
2026-05-04 01:33 34.86144 -78.29981 26929 ft 476 kts 31°
2026-05-04 01:34 34.88839 -78.27620 27217 ft 478 kts 31°
2026-05-04 01:34 34.91546 -78.25250 27507 ft 480 kts 31°
2026-05-04 01:34 34.94232 -78.22898 27788 ft 482 kts 31°
2026-05-04 01:34 34.96959 -78.20505 28070 ft 484 kts 31°
2026-05-04 01:35 34.99696 -78.18100 28346 ft 486 kts 31°
2026-05-04 01:35 35.02449 -78.15678 28619 ft 488 kts 31°
2026-05-04 01:35 35.05209 -78.13251 28889 ft 489 kts 31°
2026-05-04 01:35 35.07984 -78.10806 29162 ft 491 kts 31°
2026-05-04 01:36 35.10763 -78.08358 29412 ft 493 kts 31°
2026-05-04 01:36 35.13552 -78.05899 29679 ft 494 kts 31°
2026-05-04 01:36 35.16344 -78.03433 29928 ft 496 kts 31°
2026-05-04 01:36 35.19115 -78.00979 30145 ft 498 kts 31°
2026-05-04 01:37 35.21927 -77.98490 30422 ft 498 kts 31°
2026-05-04 01:37 35.24735 -77.96001 30693 ft 499 kts 31°
2026-05-04 01:37 35.27547 -77.93505 30949 ft 500 kts 31°
2026-05-04 01:37 35.30358 -77.91009 31198 ft 500 kts 31°
2026-05-04 01:38 35.33182 -77.88501 31450 ft 501 kts 31°
2026-05-04 01:38 35.36009 -77.85989 31704 ft 502 kts 31°
2026-05-04 01:38 35.38843 -77.83470 31945 ft 503 kts 30°
2026-05-04 01:38 35.41679 -77.80949 32228 ft 503 kts 30°
2026-05-04 01:39 35.44508 -77.78432 32496 ft 504 kts 30°
2026-05-04 01:39 35.47353 -77.75900 32762 ft 504 kts 30°
2026-05-04 01:39 35.50194 -77.73364 33024 ft 505 kts 30°
2026-05-04 01:39 35.53031 -77.70826 33291 ft 505 kts 30°
2026-05-04 01:40 35.55875 -77.68281 33568 ft 505 kts 30°
2026-05-04 01:40 35.58683 -77.65765 33827 ft 505 kts 30°
2026-05-04 01:40 35.61525 -77.63216 34093 ft 505 kts 30°
2026-05-04 01:40 35.64366 -77.60664 34328 ft 505 kts 30°
2026-05-04 01:41 35.67205 -77.58115 34543 ft 505 kts 30°
2026-05-04 01:41 35.70057 -77.55555 34753 ft 506 kts 30°
2026-05-04 01:41 35.72900 -77.53003 34955 ft 506 kts 30°
2026-05-04 01:41 35.75746 -77.50443 35095 ft 507 kts 30°
2026-05-04 01:42 35.78584 -77.47885 35123 ft 505 kts 30°
2026-05-04 01:42 35.84248 -77.42779 35128 ft 503 kts 30°
2026-05-04 01:43 35.89862 -77.37714 35128 ft 503 kts 30°
2026-05-04 01:43 35.95505 -77.32604 35133 ft 503 kts 30°
2026-05-04 01:44 36.01140 -77.27492 35135 ft 502 kts 30°
2026-05-04 01:44 36.06774 -77.22370 35142 ft 502 kts 30°
2026-05-04 01:45 36.12404 -77.17249 35152 ft 502 kts 30°
2026-05-04 01:45 36.20805 -77.09590 35164 ft 502 kts 30°
2026-05-04 01:46 36.26434 -77.04444 35160 ft 502 kts 30°
2026-05-04 01:46 36.32052 -76.99306 35148 ft 501 kts 30°
2026-05-04 01:47 36.37668 -76.94156 35137 ft 502 kts 30°
2026-05-04 01:47 36.43277 -76.88991 35127 ft 502 kts 30°
2026-05-04 01:48 36.47944 -76.84690 35132 ft 502 kts 30°
2026-05-04 01:48 36.54476 -76.78667 35144 ft 502 kts 29°
2026-05-04 01:49 36.60086 -76.73485 35167 ft 502 kts 29°
2026-05-04 01:49 36.64788 -76.69128 35170 ft 503 kts 30°
2026-05-04 01:50 36.70356 -76.63947 35171 ft 503 kts 30°
2026-05-04 01:50 36.75965 -76.58735 35171 ft 503 kts 29°
2026-05-04 01:51 36.81569 -76.53527 35134 ft 502 kts 29°
2026-05-04 01:51 36.87182 -76.48300 35136 ft 503 kts 29°
2026-05-04 01:52 36.92787 -76.43062 35131 ft 503 kts 29°
2026-05-04 01:52 36.98363 -76.37840 35130 ft 503 kts 29°
2026-05-04 01:53 37.03967 -76.32583 35124 ft 503 kts 29°
2026-05-04 01:53 37.09565 -76.27321 35123 ft 504 kts 29°
2026-05-04 01:54 37.15171 -76.22038 35127 ft 504 kts 29°
2026-05-04 01:54 37.20777 -76.16752 35129 ft 504 kts 29°
2026-05-04 01:55 37.26387 -76.11456 35134 ft 504 kts 29°
2026-05-04 01:55 37.31988 -76.06157 35139 ft 504 kts 29°
2026-05-04 01:56 37.37545 -76.00868 35144 ft 504 kts 29°
2026-05-04 01:56 37.43136 -75.95543 35142 ft 504 kts 29°
2026-05-04 01:57 37.48735 -75.90222 35132 ft 504 kts 29°
2026-05-04 01:57 37.54395 -75.85037 35123 ft 496 kts 22°
2026-05-04 01:58 37.60321 -75.80600 35122 ft 495 kts 21°
2026-05-04 01:58 37.66250 -75.76166 35127 ft 495 kts 21°
2026-05-04 01:59 37.66788 -75.75763 35125 ft 495 kts 21°
2026-05-04 01:59 37.72628 -75.71412 35121 ft 495 kts 21°
2026-05-04 02:00 37.78543 -75.66946 35134 ft 495 kts 21°
2026-05-04 02:00 37.84462 -75.62447 35133 ft 496 kts 22°
2026-05-04 02:01 37.90271 -75.57643 35146 ft 501 kts 26°
2026-05-04 02:01 37.95966 -75.52522 35147 ft 502 kts 27°
2026-05-04 02:02 38.01619 -75.47433 35146 ft 501 kts 26°
2026-05-04 02:02 38.07360 -75.42437 35134 ft 499 kts 24°
2026-05-04 02:03 38.13198 -75.37698 35124 ft 497 kts 22°
2026-05-04 02:03 38.19069 -75.33049 35113 ft 497 kts 22°
2026-05-04 02:04 38.24943 -75.28441 35120 ft 490 kts 17°
2026-05-04 02:04 38.28026 -75.26704 35121 ft 479 kts 10°
2026-05-04 02:04 38.31142 -75.25187 35127 ft 479 kts 10°
2026-05-04 02:05 38.37337 -75.22200 35120 ft 479 kts
2026-05-04 02:05 38.43569 -75.19206 35125 ft 479 kts 10°
2026-05-04 02:06 38.49798 -75.16187 35122 ft 479 kts 10°
2026-05-04 02:06 38.56028 -75.13148 35106 ft 479 kts 10°
2026-05-04 02:07 38.62240 -75.10082 35100 ft 482 kts 14°
2026-05-04 02:07 38.65244 -75.08027 35102 ft 496 kts 24°
2026-05-04 02:07 38.68011 -75.05301 35102 ft 507 kts 34°
2026-05-04 02:08 38.73253 -74.99237 35086 ft 508 kts 34°
2026-05-04 02:08 38.78495 -74.93156 35041 ft 508 kts 33°
2026-05-04 02:09 38.81123 -74.90223 34812 ft 505 kts 31°
2026-05-04 02:09 38.83840 -74.87355 34585 ft 503 kts 30°
2026-05-04 02:09 38.86585 -74.84567 34357 ft 502 kts 29°
2026-05-04 02:09 38.89342 -74.81810 34142 ft 502 kts 29°
2026-05-04 02:10 38.92103 -74.79040 33898 ft 503 kts 29°
2026-05-04 02:10 38.94851 -74.76244 33339 ft 505 kts 30°
2026-05-04 02:10 38.97583 -74.73414 32803 ft 503 kts 30°
2026-05-04 02:10 39.00284 -74.70568 32206 ft 501 kts 31°
2026-05-04 02:11 39.02967 -74.67713 31634 ft 499 kts 31°
2026-05-04 02:11 39.05637 -74.64869 31061 ft 497 kts 31°
2026-05-04 02:11 39.08296 -74.62044 30490 ft 495 kts 31°
2026-05-04 02:11 39.10949 -74.59237 29883 ft 492 kts 31°
2026-05-04 02:12 39.13549 -74.56490 29269 ft 476 kts 31°
2026-05-04 02:12 39.16087 -74.53794 28756 ft 471 kts 31°
2026-05-04 02:12 39.18596 -74.51093 28223 ft 468 kts 31°
2026-05-04 02:12 39.21075 -74.48396 27685 ft 464 kts 32°
2026-05-04 02:13 39.23519 -74.45711 27142 ft 455 kts 32°
2026-05-04 02:13 39.25855 -74.43124 26685 ft 443 kts 32°
2026-05-04 02:13 39.28195 -74.40544 26171 ft 440 kts 32°
2026-05-04 02:13 39.30525 -74.37988 25695 ft 436 kts 32°
2026-05-04 02:14 39.32830 -74.35463 25218 ft 433 kts 32°
2026-05-04 02:14 39.35117 -74.32955 24756 ft 429 kts 32°
2026-05-04 02:14 39.37383 -74.30463 24294 ft 426 kts 32°
2026-05-04 02:14 39.39635 -74.27978 23825 ft 423 kts 32°
2026-05-04 02:15 39.41844 -74.25535 23322 ft 421 kts 33°
2026-05-04 02:15 39.44055 -74.23086 22814 ft 416 kts 33°
2026-05-04 02:15 39.46239 -74.20671 22362 ft 411 kts 33°
2026-05-04 02:15 39.48401 -74.18271 21899 ft 407 kts 33°
2026-05-04 02:16 39.50542 -74.15891 21413 ft 403 kts 33°
2026-05-04 02:16 39.52607 -74.13445 20948 ft 404 kts 41°
2026-05-04 02:16 39.54407 -74.10665 20695 ft 399 kts 44°
2026-05-04 02:16 39.56156 -74.07903 20419 ft 394 kts 44°
2026-05-04 02:17 39.57895 -74.05170 20138 ft 390 kts 44°
2026-05-04 02:17 39.59620 -74.02472 19859 ft 388 kts 44°
2026-05-04 02:17 39.61314 -73.99822 19593 ft 385 kts 44°
2026-05-04 02:17 39.63017 -73.97156 19326 ft 383 kts 45°
2026-05-04 02:18 39.64711 -73.94503 19050 ft 381 kts 45°
2026-05-04 02:18 39.66395 -73.91863 18777 ft 378 kts 45°
2026-05-04 02:18 39.68071 -73.89246 18507 ft 376 kts 45°
2026-05-04 02:18 39.69737 -73.86639 18246 ft 374 kts 47°
2026-05-04 02:19 39.71026 -73.83688 17937 ft 380 kts 67°
2026-05-04 02:19 39.71554 -73.80319 17639 ft 383 kts 84°
2026-05-04 02:19 39.71859 -73.76905 17339 ft 377 kts 70°
2026-05-04 02:19 39.73040 -73.73973 17051 ft 361 kts 43°
2026-05-04 02:20 39.74959 -73.71976 16780 ft 350 kts 27°
2026-05-04 02:20 39.76931 -73.70177 16502 ft 351 kts 32°
2026-05-04 02:20 39.78828 -73.68176 16233 ft 351 kts 36°
2026-05-04 02:20 39.80644 -73.66062 15975 ft 350 kts 38°
2026-05-04 02:21 39.82415 -73.63901 15719 ft 348 kts 38°
2026-05-04 02:21 39.84168 -73.61739 15465 ft 345 kts 39°
2026-05-04 02:21 39.85910 -73.59601 15211 ft 343 kts 38°
2026-05-04 02:21 39.87649 -73.57487 14960 ft 341 kts 38°
2026-05-04 02:22 39.89384 -73.55405 14715 ft 338 kts 38°
2026-05-04 02:22 39.91115 -73.53338 14459 ft 336 kts 38°
2026-05-04 02:22 39.92836 -73.51290 14224 ft 334 kts 38°
2026-05-04 02:22 39.94543 -73.49260 13989 ft 331 kts 38°
2026-05-04 02:23 39.96239 -73.47243 13734 ft 329 kts 38°
2026-05-04 02:23 39.97924 -73.45234 13458 ft 327 kts 38°
2026-05-04 02:23 39.99597 -73.43237 13195 ft 325 kts 38°
2026-05-04 02:23 40.01239 -73.41276 12932 ft 323 kts 38°
2026-05-04 02:24 40.02888 -73.39304 12666 ft 321 kts 38°
2026-05-04 02:24 40.04532 -73.37341 12400 ft 319 kts 38°
2026-05-04 02:24 40.06165 -73.35385 12151 ft 317 kts 38°
2026-05-04 02:24 40.07788 -73.33436 12010 ft 316 kts 38°
2026-05-04 02:25 40.09406 -73.31495 12045 ft 316 kts 37°
2026-05-04 02:25 40.11029 -73.29548 12044 ft 316 kts 37°
2026-05-04 02:25 40.12649 -73.27606 12037 ft 316 kts 37°
2026-05-04 02:25 40.14272 -73.25666 12037 ft 316 kts 37°
2026-05-04 02:26 40.15895 -73.23733 12036 ft 316 kts 37°
2026-05-04 02:26 40.17521 -73.21800 12034 ft 316 kts 37°
2026-05-04 02:26 40.19146 -73.19863 12027 ft 316 kts 37°
2026-05-04 02:26 40.20768 -73.17920 12017 ft 316 kts 37°
2026-05-04 02:27 40.22387 -73.15980 12017 ft 316 kts 37°
2026-05-04 02:27 40.24008 -73.14033 12017 ft 316 kts 37°
2026-05-04 02:27 40.25626 -73.12090 12036 ft 316 kts 37°
2026-05-04 02:27 40.27248 -73.10149 12029 ft 315 kts 37°
2026-05-04 02:28 40.28847 -73.08236 12032 ft 316 kts 37°
2026-05-04 02:28 40.30469 -73.06301 11974 ft 315 kts 37°
2026-05-04 02:28 40.32096 -73.04359 11547 ft 314 kts 37°
2026-05-04 02:28 40.33701 -73.02436 11153 ft 312 kts 36°
2026-05-04 02:29 40.35299 -73.00519 10742 ft 310 kts 36°
2026-05-04 02:29 40.36888 -72.98610 10334 ft 309 kts 36°
2026-05-04 02:29 40.38450 -72.96729 10156 ft 299 kts 36°
2026-05-04 02:29 40.39951 -72.94913 10034 ft 288 kts 36°
2026-05-04 02:30 40.41409 -72.93146 9784 ft 282 kts 35°
2026-05-04 02:30 40.42845 -72.91410 9456 ft 279 kts 35°
2026-05-04 02:30 40.44275 -72.89691 9086 ft 278 kts 35°
2026-05-04 02:30 40.45683 -72.88002 8733 ft 277 kts 35°
2026-05-04 02:31 40.47122 -72.86274 8358 ft 276 kts 35°
2026-05-04 02:31 40.48517 -72.84593 7985 ft 276 kts 36°
2026-05-04 02:31 40.49928 -72.82891 7630 ft 275 kts 36°
2026-05-04 02:31 40.51376 -72.81278 7258 ft 269 kts 26°
2026-05-04 02:32 40.53029 -72.80253 7018 ft 258 kts
2026-05-04 02:32 40.54781 -72.79895 6986 ft 253 kts 355°
2026-05-04 02:32 40.56551 -72.79879 6641 ft 253 kts 354°
2026-05-04 02:32 40.58304 -72.79877 6438 ft 252 kts 354°
2026-05-04 02:33 40.60053 -72.79878 6249 ft 251 kts 354°
2026-05-04 02:33 40.61802 -72.79881 6071 ft 251 kts 354°
2026-05-04 02:33 40.63550 -72.79885 5891 ft 251 kts 354°
2026-05-04 02:33 40.65299 -72.79886 5724 ft 251 kts 354°
2026-05-04 02:34 40.67044 -72.79886 5544 ft 251 kts 354°
2026-05-04 02:34 40.68788 -72.79886 5380 ft 251 kts 354°
2026-05-04 02:34 40.69943 -72.79886 5261 ft 250 kts 354°
2026-05-04 02:34 40.71682 -72.79886 5091 ft 250 kts 354°
2026-05-04 02:35 40.73428 -72.79887 4864 ft 250 kts 354°
2026-05-04 02:35 40.75143 -72.79885 4595 ft 240 kts 354°
2026-05-04 02:35 40.76748 -72.79876 4334 ft 222 kts 353°
2026-05-04 02:35 40.78262 -72.79872 4104 ft 216 kts 353°
2026-05-04 02:36 40.79753 -72.79872 3850 ft 213 kts 353°
2026-05-04 02:36 40.81242 -72.79875 3589 ft 214 kts 353°
2026-05-04 02:36 40.82728 -72.79877 3341 ft 214 kts 353°
2026-05-04 02:36 40.84219 -72.79878 3085 ft 215 kts 353°
2026-05-04 02:37 40.85712 -72.79881 2836 ft 215 kts 353°
2026-05-04 02:37 40.87176 -72.79882 2634 ft 209 kts 353°
2026-05-04 02:37 40.88593 -72.79878 2453 ft 196 kts 352°
2026-05-04 02:37 40.89902 -72.79973 2234 ft 180 kts 340°
2026-05-04 02:38 40.91018 -72.80577 2072 ft 169 kts 321°
2026-05-04 02:38 40.91876 -72.81596 2005 ft 164 kts 304°
2026-05-04 02:38 40.92423 -72.82893 2009 ft 161 kts 287°
2026-05-04 02:38 40.92627 -72.84338 2011 ft 160 kts 271°
2026-05-04 02:39 40.92542 -72.85840 2012 ft 167 kts 265°
2026-05-04 02:39 40.92434 -72.87379 2008 ft 169 kts 266°
2026-05-04 02:39 40.92327 -72.88931 2009 ft 169 kts 265°
2026-05-04 02:39 40.92220 -72.90482 2008 ft 170 kts 265°
2026-05-04 02:40 40.92113 -72.92022 2007 ft 170 kts 265°
2026-05-04 02:40 40.91882 -72.93560 2004 ft 173 kts 252°
2026-05-04 02:40 40.91237 -72.94917 2007 ft 177 kts 232°
2026-05-04 02:40 40.90369 -72.96066 2005 ft 176 kts 230°
2026-05-04 02:41 40.89502 -72.97212 2006 ft 178 kts 230°
2026-05-04 02:41 40.88625 -72.98371 2009 ft 178 kts 230°
2026-05-04 02:41 40.87805 -72.99449 2019 ft 155 kts 231°
2026-05-04 02:41 40.87067 -73.00424 1964 ft 146 kts 231°
2026-05-04 02:42 40.86359 -73.01361 1834 ft 143 kts 231°
2026-05-04 02:42 40.85661 -73.02283 1673 ft 141 kts 231°
2026-05-04 02:42 40.84972 -73.03193 1484 ft 140 kts 230°
2026-05-04 02:42 40.84284 -73.04101 1299 ft 139 kts 230°
2026-05-04 02:43 40.83599 -73.05005 1104 ft 139 kts 229°
2026-05-04 02:43 40.82920 -73.05884 874 ft 140 kts 226°
2026-05-04 02:43 40.82227 -73.06785 691 ft 139 kts 226°
2026-05-04 02:43 40.81543 -73.07691 490 ft 142 kts 226°
2026-05-04 02:44 40.80841 -73.08631 294 ft 145 kts 225°
2026-05-04 02:44 40.80131 -73.09571 138 ft 145 kts 225°
2026-05-04 02:44 40.79389 -73.10580 629 ft 158 kts 227°
2026-05-04 02:44 40.78613 -73.11599 1544 ft 158 kts 227°
2026-05-04 02:45 40.77760 -73.12578 1922 ft 167 kts 225°
2026-05-04 02:45 40.76749 -73.13478 1999 ft 189 kts 205°
2026-05-04 02:45 40.75391 -73.13290 2001 ft 214 kts 157°
2026-05-04 02:45 40.74355 -73.11711 1993 ft 246 kts 112°
2026-05-04 02:46 40.74267 -73.09488 2007 ft 250 kts 73°
2026-05-04 02:46 40.74833 -73.07280 2013 ft 251 kts 68°
2026-05-04 02:46 40.75716 -73.05366 2008 ft 246 kts 43°
2026-05-04 02:46 40.76879 -73.03708 2009 ft 247 kts 43°
2026-05-04 02:47 40.78038 -73.02029 2010 ft 247 kts 44°
2026-05-04 02:47 40.79149 -73.00396 2001 ft 234 kts 44°
2026-05-04 02:47 40.80220 -72.98815 2010 ft 227 kts 43°
2026-05-04 02:47 40.81263 -72.97273 2031 ft 224 kts 43°
2026-05-04 02:48 40.82296 -72.95733 2012 ft 223 kts 46°
2026-05-04 02:48 40.82984 -72.93887 2001 ft 229 kts 76°
2026-05-04 02:48 40.82910 -72.91801 2009 ft 229 kts 110°
2026-05-04 02:48 40.82083 -72.90073 2010 ft 221 kts 142°
2026-05-04 02:49 40.80777 -72.89112 2013 ft 212 kts 169°
2026-05-04 02:49 40.79396 -72.88387 2007 ft 219 kts 150°
2026-05-04 02:49 40.78206 -72.87106 2012 ft 221 kts 143°
2026-05-04 02:49 40.77067 -72.85743 2011 ft 220 kts 142°
2026-05-04 02:50 40.75941 -72.84371 2005 ft 221 kts 142°
2026-05-04 02:50 40.74831 -72.83007 2009 ft 221 kts 142°
2026-05-04 02:50 40.73665 -72.81700 2000 ft 217 kts 154°
2026-05-04 02:50 40.72277 -72.81107 2003 ft 207 kts 182°
2026-05-04 02:51 40.70906 -72.81400 2007 ft 196 kts 209°
2026-05-04 02:51 40.69825 -72.82410 2008 ft 188 kts 233°
2026-05-04 02:51 40.69189 -72.83883 2006 ft 184 kts 254°
2026-05-04 02:51 40.68805 -72.85489 2010 ft 184 kts 255°
2026-05-04 02:52 40.68414 -72.87099 2005 ft 185 kts 254°
2026-05-04 02:52 40.68020 -72.88712 2005 ft 185 kts 254°
2026-05-04 02:52 40.67626 -72.90322 2009 ft 184 kts 254°
2026-05-04 02:52 40.67233 -72.91932 2006 ft 184 kts 255°
2026-05-04 02:53 40.66849 -72.93545 2001 ft 185 kts 258°
2026-05-04 02:53 40.66868 -72.95211 2007 ft 184 kts 284°
2026-05-04 02:53 40.67498 -72.96655 2004 ft 189 kts 310°
2026-05-04 02:53 40.68638 -72.97550 2007 ft 197 kts 339°
2026-05-04 02:54 40.69977 -72.97969 2009 ft 196 kts 335°
2026-05-04 02:54 40.71130 -72.98855 2007 ft 190 kts 314°
2026-05-04 02:54 40.72053 -73.00029 2000 ft 172 kts 310°
2026-05-04 02:54 40.72855 -73.01057 2009 ft 153 kts 310°
2026-05-04 02:55 40.74283 -73.02919 1692 ft 140 kts 309°
2026-05-04 02:55 40.74971 -73.03823 1385 ft 139 kts 310°
2026-05-04 02:55 40.75656 -73.04721 1131 ft 139 kts 308°
2026-05-04 02:56 40.76337 -73.05616 917 ft 138 kts 311°
2026-05-04 02:56 40.77039 -73.06526 669 ft 142 kts 313°
2026-05-04 02:56 40.77742 -73.07438 478 ft 144 kts 314°
2026-05-04 02:56 40.78449 -73.08382 304 ft 145 kts 314°
2026-05-04 02:57 40.79164 -73.09341 133 ft 144 kts 315°
2026-05-04 02:57 40.79823 -73.10206 100 ft 108 kts 315°
2026-05-04 02:57 40.80128 -73.10609 94 ft 18 kts 314°
2026-05-04 02:57 40.80144 -73.10684 95 ft 1 kts 255°
2026-05-04 02:58 40.80144 -73.10686 95 ft 0 kts 253°
2026-05-04 02:58 40.80142 -73.10691 94 ft 4 kts 246°
2026-05-04 02:59 40.80098 -73.10718 96 ft 9 kts 186°
2026-05-04 02:59 40.80012 -73.10720 96 ft 13 kts 181°